Simultaneous Nadir Overpasses (SNOs) Predictions

Prediction of SNOs between METOP-B and TERRA Satellite Orbit:

Table of predicted SNOs for the next 14.0 days since TLE Epoch: 7/7/2017
Index Date (METOP-B) Time (METOP-B) Lat,Lon (METOP-B) SZA (METOP-B ) Date (TERRA) Time (TERRA) Lat,Lon (TERRA) SZA (TERRA ) Distance(km) Time Diff (sec)
1 07/07/2017 23:03:07 81.34,-117.89 61.71 07/07/2017 23:03:32 81.35,-117.74 61.74 2.67 25
2 07/07/2017 23:53:46 -81.34, 49.99 118.23 07/07/2017 23:52:59 -81.34, 49.84 118.27 2.57 47
3 07/10/2017 18:37:27 81.34, -51.27 62.06 07/10/2017 18:37:51 81.34, -51.46 62.05 3.30 24
4 07/10/2017 19:28:07 -81.34, 116.25 117.91 07/10/2017 19:27:18 -81.34, 116.14 117.96 1.91 49
5 07/13/2017 14:11:48 81.34, 14.94 62.42 07/13/2017 14:12:11 81.34, 15.01 62.44 1.21 23
6 07/13/2017 15:02:28 -81.34,-177.51 117.55 07/13/2017 15:01:38 -81.34,-177.36 117.56 2.57 50
7 07/16/2017 09:46:09 81.34, 81.13 62.82 07/16/2017 09:46:33 81.34, 81.30 62.85 2.86 24
8 07/16/2017 10:36:48 -81.34,-110.89 117.10 07/16/2017 10:36:00 -81.34,-111.04 117.14 2.59 48
9 07/19/2017 05:20:28 81.34, 147.70 63.32 07/19/2017 05:20:55 81.34, 147.80 63.35 1.61 27




NCC Satellite Simultaneous Nadir Overpasses (SNOs) Prediction Service
